Location: Trondheim
(63.4170°N, 10.4170°E)
Time: 19:04:39
(UTC+01:00)

Iridium 82 - Visible Passes

Search period start: 18 January 2018 00:00
Search period end: 28 January 2018 00:00
Orbit: 472 x 725 km, 86.4° (Epoch: 18 January)

Date Brightness Start Highest point End Pass type
(mag) Time Alt. Az. Time Alt. Az. Time Alt. Az.
23 Jan 8.1 21:26:20 10° N 21:26:22 10° N 21:26:22 10° N visible
24 Jan 8.1 21:37:16 10° N 21:37:29 11° N 21:37:29 11° N visible
25 Jan 7.8 20:11:33 10° N 20:11:52 11° N 20:11:52 11° N visible
25 Jan 8.1 21:48:14 10° N 21:48:37 12° N 21:48:37 12° N visible
26 Jan 7.7 20:22:24 10° N 20:22:59 13° N 20:22:59 13° N visible
26 Jan 8.1 21:59:13 10° N 21:59:44 13° N 21:59:44 13° N visible
27 Jan 7.6 20:33:17 10° N 20:34:08 14° N 20:34:08 14° N visible
27 Jan 8.1 22:10:14 10° N 22:10:53 14° NNW 22:10:53 14° NNW visible
